Location: Владивосток
(43.1151°N, 131.8856°E)
Time: 18:58:02
(UTC+10:00)

CAS-4B - Visible Passes

Search period start: 04 July 2022 00:00
Search period end: 14 July 2022 00:00
Orbit: 524 x 536 km, 43.0° (Epoch: 03 July)

Date Brightness Start Highest point End Pass type
(mag) Time Alt. Az. Time Alt. Az. Time Alt. Az.
04 Jul ? 02:37:59 41° ESE 02:37:59 41° ESE 02:41:04 10° E visible
04 Jul ? 04:13:11 11° W 04:17:04 89° S 04:21:08 10° E visible
05 Jul ? 02:25:47 40° ESE 02:25:47 40° ESE 02:28:38 10° E visible
05 Jul ? 04:00:58 12° W 04:04:37 89° NNE 04:08:41 10° E visible
06 Jul ? 02:13:36 36° E 02:13:36 36° E 02:16:12 10° E visible
06 Jul ? 03:48:47 14° W 03:52:11 89° NNE 03:56:14 10° E visible
07 Jul ? 02:01:27 32° E 02:01:27 32° E 02:03:44 10° E visible
07 Jul ? 03:36:39 17° W 03:39:43 89° S 03:43:46 10° E visible
08 Jul ? 01:49:24 26° E 01:49:24 26° E 01:51:17 10° E visible
08 Jul ? 03:24:37 21° W 03:27:15 87° S 03:31:19 10° E visible
08 Jul ? 05:03:17 10° W 05:07:06 41° SSW 05:10:55 10° SE visible
09 Jul ? 01:37:32 19° E 01:37:32 19° E 01:38:49 10° E visible
09 Jul ? 03:12:46 28° W 03:14:48 83° S 03:18:51 10° E visible
09 Jul ? 04:50:53 10° W 04:54:35 36° SSW 04:58:18 10° SE visible
10 Jul ? 01:26:02 12° E 01:26:02 12° E 01:26:21 10° E visible
10 Jul ? 03:01:18 48° W 03:02:20 78° S 03:06:22 10° ESE visible
10 Jul ? 04:38:29 10° W 04:42:03 30° SSW 04:45:37 10° SE visible
10 Jul ? 21:49:07 10° SSE 21:50:27 12° SE 21:50:27 12° SE visible
11 Jul ? 02:50:35 55° SE 02:50:35 55° SE 02:53:52 10° ESE visible
11 Jul ? 04:26:07 10° W 04:29:30 26° SSW 04:32:53 10° SSE visible
11 Jul ? 21:35:47 10° S 21:38:03 15° SE 21:40:19 10° ESE visible
11 Jul ? 23:13:34 10° SW 23:16:46 44° SSW 23:16:46 44° SSW visible
12 Jul ? 02:41:06 12° ESE 02:41:06 12° ESE 02:41:21 10° ESE visible
12 Jul ? 04:16:30 22° SW 04:16:57 22° SSW 04:20:06 10° SSE visible
12 Jul ? 21:22:44 10° S 21:25:28 18° SE 21:28:12 10° ESE visible
12 Jul ? 23:01:01 10° WSW 23:04:57 57° SSE 23:06:25 34° E visible
13 Jul ? 00:40:52 10° W 00:41:41 15° W 00:41:41 15° W visible
13 Jul ? 22:48:28 10° WSW 22:52:28 64° SSE 22:55:08 20° E visible
